Location: Ballard
(38.3614°N, 94.1431°W)
Time: 15:21:41
(UTC-05:00)

N. Korean satellite - Visible Passes

Search period start: 23 March 2019 00:00
Search period end: 02 April 2019 00:00
Orbit: 456 x 510 km, 97.2° (Epoch: 22 March)

Date Brightness Start Highest point End Pass type
(mag) Time Alt. Az. Time Alt. Az. Time Alt. Az.
24 Mar 9.6 06:44:12 10° NE 06:47:03 22° E 06:49:56 10° SSE visible
25 Mar 10.3 06:21:07 10° ENE 06:22:05 11° E 06:23:04 10° ESE visible
28 Mar 9.7 06:38:28 10° NE 06:41:08 19° E 06:43:48 10° SE visible
01 Apr 9.8 06:32:45 10° NE 06:35:09 17° E 06:37:34 10° SE visible
